RH
101 101 100 100 100 100 100 100 101 101 100 100 100 100 101 101 101 101 101 98 95 94 91 90 91 95 101 107 105 105 107 108 109 106 103 101 101 102 102 100 102 104 101 100 99 96 93 91 89 86 83 85 88 90 88 85 83 80 79 76 74 79 87 91 92 92 88 80 73 70 67 67 68 73 85 91 84 79 70 59 55 53 46 41 33
101 100 101 100 100 100 100 100 100 100 100 101 101 101 101 101 101 99 96 92 89 90 92 97 102 104 107 108 105 105 105 103 103 102 102 103 102 102 101 99 101 103 101 101 98 94 92 88 83 80 81 88 92 91 88 84 80 77 75 75 79 84 89 92 92 93 92 85 76 71 70 72 74 77 87 91 84 80 73 66 65 60 51 42 33
101 100 100 100 100 100 100 100 100 100 101 101 101 101 100 99 99 96 91 89 91 97 101 105 106 106 105 104 102 101 99 97 100 104 106 107 104 102 101 100 101 102 101 101 98 93 89 82 79 81 87 93 92 90 88 84 78 75 75 80 86 90 91 92 91 90 90 85 78 74 75 78 80 84 89 89 83 78 72 70 71 64 52 41 33
101 100 100 100 101 101 100 100 101 101 101 101 100 100 100 99 99 97 95 95 99 103 106 106 103 102 102 100 96 95 95 98 103 106 107 104 101 101 100 100 102 102 101 101 96 89 84 80 81 86 91 93 92 91 89 84 79 77 82 89 93 95 95 93 91 88 85 82 79 77 79 81 85 90 89 84 81 76 70 71 71 60 47 39 33
100 101 101 100 101 102 101 100 100 100 100 100 100 100 101 100 100 100 100 100 101 102 104 103 102 101 100 98 96 95 97 99 101 103 103 101 101 101 100 100 101 101 101 98 91 85 81 81 85 90 94 94 94 94 91 85 82 83 90 96 98 99 98 93 90 85 79 78 78 78 81 84 90 93 87 79 77 74 71 70 66 53 43 38 34
101 102 102 102 102 102 101 100 100 100 100 101 102 101 100 100 100 101 101 101 101 100 101 102 102 101 100 99 97 94 93 95 98 101 101 101 101 100 100 101 101 101 100 95 89 85 83 85 90 96 98 96 96 96 93 87 85 89 96 100 101 102 100 93 86 81 77 75 75 78 84 88 92 93 85 75 71 70 68 66 59 48 40 37 34
101 102 102 103 104 102 100 100 100 100 101 102 102 101 100 100 100 101 101 100 100 100 101 102 101 100 100 99 95 92 92 96 99 101 101 100 101 100 100 101 101 101 100 96 92 89 88 91 97 101 100 98 99 100 95 90 90 94 99 102 102 102 100 92 83 77 76 75 74 78 86 91 91 90 84 74 67 64 59 55 51 45 39 36 34
101 101 100 100 103 102 100 100 101 101 101 102 101 101 102 101 100 101 101 100 100 101 101 101 100 100 100 99 97 96 97 100 101 101 100 100 101 101 100 100 100 99 100 99 96 93 94 96 99 102 101 101 102 103 99 94 94 98 100 100 102 102 97 89 81 77 76 77 78 82 89 93 90 86 82 73 64 59 53 49 45 40 36 35 35
104 104 102 101 102 102 100 100 101 101 101 102 102 103 104 102 100 100 101 101 101 101 100 100 100 101 101 100 100 100 100 100 101 101 100 100 101 101 100 100 99 99 101 101 99 98 99 99 101 102 101 100 102 102 100 97 97 100 101 101 102 101 93 85 80 77 78 82 86 89 91 93 89 83 78 68 58 55 52 47 41 36 32 33 37
103 103 102 102 102 102 102 101 100 100 101 101 101 102 103 102 100 100 100 100 101 101 101 101 100 100 101 100 101 101 100 100 101 100 100 101 101 101 100 99 100 101 102 102 101 100 100 101 102 102 100 101 102 101 99 98 99 101 102 102 102 97 89 83 79 79 82 89 94 94 92 92 88 81 71 60 53 53 50 43 36 32 31 34 37
102 102 101 102 102 102 102 101 101 101 100 101 100 100 101 101 101 101 101 101 102 101 102 103 102 101 101 101 101 100 100 100 100 100 101 101 101 100 100 100 101 101 101 101 100 100 100 101 101 100 100 102 102 100 98 99 101 102 102 103 100 91 84 82 81 84 89 94 98 95 90 88 86 76 62 54 53 52 45 37 32 30 31 33 32
102 102 100 101 101 101 101 101 101 101 101 102 101 100 100 101 101 102 102 103 103 102 101 102 102 101 100 100 100 100 100 100 100 101 101 100 100 100 100 101 100 100 101 100 100 100 101 103 101 99 101 102 100 99 98 100 103 103 101 100 95 86 81 81 85 91 94 98 101 96 88 84 79 67 56 53 53 47 38 33 30 30 31 30 25
101 101 100 100 100 100 100 101 102 102 102 103 102 101 101 101 101 102 103 103 102 101 100 101 102 101 101 101 101 100 100 100 100 100 100 100 100 100 101 101 100 100 100 100 100 100 101 102 100 100 103 102 100 99 100 102 105 103 100 98 92 85 81 83 90 96 97 100 100 95 85 76 67 60 55 52 46 38 32 30 30 31 30 26 23
100 100 100 100 100 100 101 102 103 103 103 104 103 103 103 102 102 102 102 101 100 100 101 101 101 100 101 101 101 100 100 100 100 100 100 99 100 100 101 101 100 100 100 100 100 101 101 100 99 102 104 101 99 102 102 102 104 104 100 96 90 86 85 88 95 98 98 98 95 89 78 65 58 58 55 46 37 30 28 30 31 30 26 23 23
101 101 101 100 100 100 100 100 101 101 102 102 101 101 101 101 101 101 100 100 100 100 101 101 100 100 100 100 100 100 100 100 100 100 100 100 100 101 100 100 100 100 100 100 101 101 101 100 100 102 103 100 100 102 102 101 103 102 99 95 92 90 90 94 98 99 99 97 89 78 67 58 58 58 50 38 31 28 28 31 30 26 22 21 23
100 100 101 101 100 100 100 100 100 100 100 100 100 100 101 100 100 101 100 100 100 100 101 101 101 101 100 100 100 100 100 100 100 101 100 100 101 100 100 100 100 100 100 101 101 100 100 102 103 101 100 100 101 101 101 102 102 101 99 97 96 97 97 98 99 99 98 93 80 67 62 62 61 53 41 32 28 27 29 30 26 21 20 21 21
101 101 100 100 100 101 100 100 100 100 100 100 100 100 101 101 100 101 100 100 100 100 101 101 101 100 100 100 100 99 100 100 100 101 101 100 100 100 100 100 100 100 101 101 101 100 100 103 105 102 100 101 101 101 101 101 101 101 101 99 100 101 100 100 102 100 93 81 69 64 66 64 55 43 34 29 27 28 29 26 22 20 20 19 16
100 101 102 101 101 101 100 101 101 100 100 100 100 100 100 100 100 100 100 101 100 100 100 101 100 100 100 100 100 100 100 100 100 101 101 100 101 100 100 100 100 101 101 101 100 101 103 103 102 101 101 102 102 101 100 100 100 101 100 100 101 100 98 102 104 96 82 71 68 69 66 56 46 38 33 30 31 30 27 22 20 19 18 16 14
98 100 102 101 101 101 100 100 100 100 100 100 100 101 101 100 100 100 100 101 100 101 101 100 100 101 100 100 100 100 100 101 101 100 100 100 101 101 100 100 100 101 101 101 100 101 103 102 99 100 102 102 102 101 99 100 100 100 100 101 100 99 102 104 97 84 75 73 72 67 58 49 43 38 34 34 35 30 24 20 20 19 16 14 13
92 97 101 103 105 105 104 102 101 101 100 100 100 101 101 101 101 100 100 100 100 101 101 100 100 101 101 100 100 100 100 101 100 100 100 100 100 100 100 100 101 101 100 101 102 101 102 101 100 100 101 101 101 101 100 100 100 101 101 100 99 102 104 97 84 76 75 73 66 58 52 47 41 36 36 38 35 27 22 22 23 20 15 14 14
76 80 85 90 94 98 101 102 103 103 103 103 103 102 102 102 102 101 101 101 101 101 101 102 103 102 100 100 101 101 101 101 101 100 100 100 100 100 101 101 102 102 99 101 103 102 100 100 101 101 101 101 100 100 100 100 101 101 100 100 102 101 93 84 78 76 70 62 57 54 49 42 38 38 39 37 30 24 24 25 24 19 16 16 14
66 67 68 70 73 76 80 83 87 92 96 99 102 103 103 105 106 104 103 105 105 104 103 105 105 103 100 100 100 101 101 101 102 100 100 101 100 101 101 101 102 101 100 102 102 100 99 101 101 100 100 101 100 100 100 101 100 100 100 101 97 89 81 79 75 68 60 56 55 51 43 38 38 41 38 31 26 24 26 27 23 18 17 17 13
64 66 66 66 67 67 68 68 70 74 79 84 89 93 97 101 104 103 104 106 107 106 107 107 105 101 101 101 101 100 100 102 101 100 100 101 101 101 102 102 101 100 100 102 102 100 100 101 100 100 100 100 100 101 101 100 100 101 100 94 85 80 79 75 66 58 56 56 52 45 39 39 41 39 32 27 25 26 28 25 20 18 19 16 10
67 69 69 69 70 69 69 68 67 67 70 73 75 77 81 85 88 91 93 96 98 100 103 105 104 102 102 103 103 101 100 102 103 102 100 100 103 105 103 100 101 102 101 101 101 100 100 101 100 100 100 100 101 101 100 100 101 98 91 82 80 81 75 64 57 58 59 54 46 41 40 42 40 34 27 25 26 27 27 22 19 20 19 13 10
66 67 68 69 70 70 71 71 69 68 68 69 69 69 68 69 71 74 77 80 84 87 90 94 98 99 100 103 105 104 101 102 105 105 102 100 103 105 102 99 101 102 100 101 101 100 101 100 100 100 100 100 100 100 101 101 96 87 81 82 83 75 63 57 60 61 56 48 43 42 44 43 37 29 26 26 27 27 24 20 21 22 16 11 12
60 61 63 63 63 64 66 69 71 71 71 72 72 70 67 65 65 66 69 73 76 78 82 87 93 97 100 104 107 106 104 103 104 105 103 101 101 103 101 100 102 101 100 100 100 100 100 101 100 101 101 100 99 101 101 95 85 81 85 86 76 62 57 62 64 58 50 45 43 45 45 40 32 27 27 28 27 25 22 21 24 20 13 12 16
52 54 56 57 57 57 58 60 64 68 72 75 77 76 75 73 72 73 77 81 84 86 90 94 98 101 104 106 106 104 102 101 102 103 103 101 101 101 101 102 103 101 100 100 100 101 102 102 101 100 99 100 101 100 95 87 84 89 88 75 61 59 65 68 62 52 46 44 45 47 43 34 29 28 29 29 27 23 21 23 24 16 11 15 18
40 42 45 48 51 53 55 56 57 59 62 66 71 76 79 80 82 84 87 92 97 99 102 105 105 104 105 105 104 102 102 101 101 102 102 101 101 101 101 102 102 100 100 100 102 103 103 101 99 100 100 99 97 92 90 92 94 89 74 60 60 69 72 66 55 48 45 46 48 46 38 31 30 30 30 30 26 22 23 25 21 14 13 18 18
32 31 32 34 38 42 47 51 53 54 56 58 62 67 72 76 82 88 93 97 98 98 102 106 106 104 104 105 102 101 102 103 102 102 101 101 102 102 101 101 101 100 102 104 104 102 100 98 98 98 96 94 93 94 98 98 88 72 60 62 71 74 68 58 50 46 48 51 50 42 34 32 33 32 32 31 25 22 25 25 18 13 16 19 16
38 35 32 30 29 30 33 36 41 44 48 51 56 62 66 71 77 86 97 104 100 95 98 103 103 103 105 104 104 103 102 102 103 102 100 100 101 101 100 100 101 102 103 103 100 97 97 98 96 94 92 94 99 102 98 86 70 62 66 74 76 70 61 53 49 50 54 53 46 37 34 34 34 34 34 30 23 23 27 22 15 15 20 19 16
42 41 39 36 34 33 31 31 32 34 36 39 43 49 56 62 69 79 94 106 105 102 103 105 105 105 105 104 104 104 102 101 102 102 101 101 101 101 101 101 101 102 101 98 95 95 97 97 94 92 96 100 101 95 83 70 65 71 80 82 75 65 57 51 52 56 57 50 41 36 36 36 35 36 34 27 23 26 26 19 15 19 22 18 16
42 41 39 37 37 36 35 35 33 33 34 34 34 37 43 48 54 64 82 100 106 105 106 107 104 102 103 103 103 104 102 100 100 101 102 101 100 101 102 100 100 101 99 94 93 96 96 95 94 96 98 98 92 81 71 67 73 83 86 81 70 60 54 53 59 61 54 44 39 38 38 36 37 37 31 25 25 28 23 16 17 22 22 19 17
48 46 44 41 39 38 38 37 36 35 35 35 34 34 36 39 43 49 66 90 104 104 104 106 103 100 102 102 102 104 103 100 100 101 101 100 100 100 100 100 100 100 96 93 93 94 93 94 97 97 95 90 82 73 69 74 84 88 83 73 63 56 55 60 63 57 47 40 40 40 38 37 38 35 28 25 28 27 20 16 21 24 22 19 18
50 49 48 47 46 46 45 44 42 41 40 38 36 35 34 36 39 41 53 77 96 100 101 104 103 101 102 101 101 103 102 100 100 100 99 100 101 101 100 100 100 98 96 94 94 93 93 95 95 94 92 85 76 70 74 84 89 84 74 65 58 57 62 65 60 49 42 42 42 39 38 39 38 32 26 27 30 24 17 18 24 24 21 20 19
59 55 51 49 48 50 52 53 52 50 50 48 44 40 38 37 39 39 46 66 88 98 99 103 104 102 101 101 102 101 101 100 99 98 100 102 101 100 99 98 98 99 100 96 92 91 90 90 93 95 91 79 71 74 84 89 85 75 67 61 59 63 67 63 52 44 44 44 41 39 41 41 35 28 27 31 30 20 16 22 27 24 22 22 20
72 68 63 58 55 52 51 52 53 55 57 57 54 51 47 44 44 44 45 60 85 100 101 102 104 102 99 101 102 100 100 101 99 98 101 101 98 100 100 96 98 101 97 89 86 87 87 92 100 98 82 70 73 85 90 85 77 69 62 60 65 70 66 55 46 46 46 43 40 41 42 38 31 27 29 33 27 16 17 26 29 25 23 23 21
79 77 75 73 71 68 64 61 57 55 56 57 59 60 58 54 53 53 52 60 81 100 105 103 103 101 100 101 100 99 100 100 99 101 102 98 98 102 102 99 100 96 86 82 85 87 91 102 103 85 69 72 85 91 86 78 71 65 61 65 71 69 57 48 47 49 46 41 42 44 41 34 29 29 32 32 23 14 18 27 29 26 24 24 22
77 78 79 80 82 84 85 84 79 73 65 59 57 60 64 64 62 62 63 68 79 93 102 105 102 100 100 100 99 100 101 99 100 102 101 98 99 101 101 100 97 87 81 85 89 90 99 106 92 70 71 87 93 86 78 72 66 64 67 72 70 59 50 49 50 47 43 42 44 42 37 30 28 31 34 30 19 14 21 28 29 27 26 24 22
75 76 78 79 80 84 90 96 98 94 86 77 69 63 62 67 70 70 72 78 83 90 99 104 103 100 100 100 99 101 101 100 100 101 100 101 101 98 97 97 91 82 84 90 90 92 104 100 78 71 86 95 87 78 74 68 65 69 74 72 62 52 50 52 50 44 42 44 43 39 34 29 30 34 34 26 16 16 23 28 29 29 28 25 23
75 76 76 77 80 84 92 99 103 102 99 99 96 84 71 67 72 76 79 84 90 94 99 103 103 101 99 99 99 100 101 101 100 99 101 103 100 97 97 95 86 83 89 92 90 97 103 90 77 84 94 88 78 74 70 67 71 76 73 63 54 52 53 52 46 42 43 44 41 37 31 29 33 36 31 21 16 19 24 27 29 31 29 26 24
70 70 71 75 81 88 97 105 107 105 105 108 110 106 92 77 72 77 83 88 96 102 103 103 103 101 99 100 100 101 101 100 98 100 103 102 98 98 99 93 85 86 92 92 95 101 97 85 84 92 90 79 74 72 69 72 78 75 64 56 54 55 55 49 44 43 45 43 39 34 30 31 36 36 27 19 18 22 25 27 30 31 30 28 25
62 61 62 67 76 87 98 105 106 105 106 106 107 112 108 91 77 77 84 90 98 105 106 104 102 100 100 100 101 100 100 99 100 103 103 97 95 99 99 91 87 90 94 96 99 99 91 86 89 89 80 73 72 72 74 79 76 65 57 56 57 57 53 47 43 44 44 41 37 33 31 34 37 33 23 19 21 24 26 27 29 30 30 28 25
56 57 59 62 69 78 90 100 103 105 107 105 105 110 110 97 81 78 84 91 98 105 108 107 105 102 100 100 100 100 100 100 101 103 100 95 96 99 95 90 90 94 98 100 99 94 89 88 88 81 73 71 74 77 80 77 67 58 58 60 59 56 51 45 44 45 43 39 35 32 32 36 37 30 21 19 24 27 27 28 30 31 30 26 24
51 53 55 58 64 70 78 89 100 105 106 105 105 106 102 91 80 79 85 92 97 102 105 106 105 101 100 100 101 100 99 100 101 101 98 97 99 97 92 91 95 98 100 99 94 89 88 87 80 72 70 75 81 82 78 67 59 59 62 61 58 53 48 44 45 45 42 38 35 32 34 38 36 27 19 20 26 28 28 28 30 31 29 26 24
56 56 56 57 62 68 74 84 96 102 103 101 99 95 88 82 80 85 92 97 99 100 102 105 106 104 102 101 101 100 100 100 101 99 98 99 98 93 91 95 100 100 97 92 87 86 85 79 71 70 77 84 85 78 68 60 60 63 64 60 55 50 45 44 45 44 41 38 34 33 37 39 34 24 19 22 27 29 29 29 31 31 29 27 25
64 64 63 62 63 69 75 82 87 90 90 89 88 87 88 91 96 101 104 105 104 105 107 108 107 105 102 100 101 101 100 101 101 101 100 99 95 93 96 101 99 93 88 85 84 82 76 68 69 79 88 88 80 68 61 61 65 66 63 59 54 48 46 46 45 44 41 37 34 35 39 39 32 22 19 23 29 30 29 29 30 30 29 27 26
74 71 72 71 69 71 76 79 82 86 90 94 97 101 103 104 105 105 105 105 104 105 106 105 103 102 101 100 100 100 100 101 102 101 99 98 97 98 100 97 89 83 82 82 79 72 66 69 81 92 92 81 69 62 62 65 67 66 62 58 52 48 47 47 46 44 41 36 34 38 41 39 30 21 20 25 30 31 30 30 30 30 28 27 26
88 82 81 81 80 82 86 90 95 101 104 104 105 105 103 102 101 101 101 101 100 100 99 100 100 100 100 99 99 100 101 102 101 100 100 102 103 99 93 84 78 78 78 75 68 64 69 82 94 95 84 71 63 62 65 68 68 66 62 56 51 48 47 47 47 45 41 36 36 40 42 38 28 20 21 27 31 31 30 31 30 29 28 27 26
100 97 96 96 97 100 102 103 105 107 105 103 103 102 101 101 99 95 93 93 93 95 97 99 99 99 99 100 100 101 101 102 102 103 102 99 95 87 79 74 73 73 70 63 62 70 84 96 97 86 73 65 62 65 68 69 69 66 61 55 50 48 47 48 48 45 40 36 37 41 43 38 27 20 22 28 32 31 31 31 30 29 28 27 26
99 97 95 96 97 100 101 102 102 101 100 99 99 96 92 87 82 79 81 87 92 96 99 100 100 100 102 103 104 105 105 105 103 98 92 86 80 75 70 68 67 64 59 60 70 86 98 100 91 77 67 64 65 67 70 71 70 66 60 53 49 49 49 49 48 46 40 37 38 44 45 37 26 20 23 29 32 32 32 31 31 30 28 28 29
91 88 86 86 88 90 92 92 90 87 85 83 80 77 74 72 72 76 84 91 96 99 102 104 105 106 105 105 105 103 101 97 90 82 77 74 71 67 64 62 59 57 59 70 87 100 102 95 83 71 66 65 67 68 71 73 71 65 58 53 50 50 50 50 49 46 41 37 40 46 46 37 25 21 24 30 33 34 33 32 31 30 29 30 32
Wind_Speed
73 73 72 72 72 72 72 71 71 72 71 71 70 69 70 71 72 73 73 72 72 73 74 74 74 73 73 73 74 74 75 76 78 79 80 80 81 82 84 84 84 84 84 84 84 85 87 88 89 91 92 93 96 98 100 102 104 105 106 107 109 111 113 114 115 118 121 124 125 125 125 125 126 126 125 126 127 127 128 129 129 132 134 135 136
74 74 74 74 73 73 73 73 73 73 72 72 72 72 72 73 73 74 74 74 73 74 74 74 74 74 74 75 76 76 77 79 80 81 80 80 81 82 84 84 84 84 84 85 86 87 88 89 91 92 93 94 97 100 102 104 105 106 107 109 111 112 113 114 115 116 118 123 125 126 126 126 126 126 125 124 125 125 126 128 130 132 135 136 137
76 75 75 75 74 74 74 74 74 74 74 74 74 75 75 75 75 75 75 74 73 73 73 74 75 75 77 78 78 79 80 81 81 81 80 80 81 82 84 84 84 85 86 86 87 88 89 90 91 92 94 96 99 101 103 105 106 107 108 110 112 114 115 115 115 115 117 121 124 125 126 126 126 125 124 124 124 124 125 127 130 133 135 136 137
77 76 76 75 74 74 74 75 75 75 75 76 76 75 75 75 75 75 74 74 73 73 74 75 76 77 79 79 80 80 80 80 79 80 80 81 82 83 84 84 84 85 86 87 88 89 90 91 92 93 95 98 100 102 105 106 107 108 110 112 114 115 115 115 116 116 117 120 123 124 125 125 125 124 123 123 123 124 125 127 130 133 134 136 136
79 79 78 77 76 76 76 76 76 76 75 75 75 75 74 74 74 74 74 74 74 75 76 77 78 78 79 79 79 78 78 78 79 80 80 81 82 83 83 83 84 85 87 88 89 89 90 91 93 95 97 99 101 104 106 107 109 110 112 113 115 115 116 116 117 118 119 120 122 123 125 125 125 124 124 123 123 124 125 128 131 133 133 134 135
80 80 80 80 79 78 78 78 77 76 76 76 75 75 75 74 74 75 75 76 76 77 77 78 78 78 78 77 78 77 78 78 79 79 80 81 81 82 82 83 84 86 87 88 89 89 91 92 94 96 98 100 102 105 107 109 111 112 113 114 114 115 116 117 119 120 121 122 123 123 124 125 125 124 124 124 123 124 125 127 130 132 132 132 132
80 80 80 79 79 79 79 78 77 77 77 77 77 76 76 75 75 76 77 77 77 77 77 78 78 77 77 77 77 77 77 78 78 79 79 80 81 82 82 83 84 86 87 88 89 90 91 93 95 97 100 102 104 107 110 111 113 113 113 113 114 115 117 118 120 121 122 123 124 124 124 125 125 124 124 125 125 126 127 128 129 131 130 130 129
81 80 79 78 78 78 77 77 77 77 78 78 78 78 77 77 77 77 78 78 78 78 78 78 77 77 77 77 78 78 77 77 78 79 80 81 82 83 83 83 84 85 86 87 89 90 92 94 96 99 102 104 107 110 112 113 114 113 113 113 114 115 117 120 121 122 123 124 125 125 125 125 126 125 125 125 126 128 129 130 129 129 128 126 127
83 82 81 80 79 79 77 77 77 78 78 78 79 79 79 79 79 79 78 78 78 79 78 78 78 78 78 78 78 78 78 78 79 81 82 83 83 83 83 83 84 85 86 88 90 92 93 96 99 101 104 107 109 111 113 113 113 113 113 114 115 116 119 121 122 123 123 124 124 125 125 125 126 126 126 126 127 129 131 131 130 128 126 124 124
86 85 84 83 83 82 81 81 81 80 80 80 80 81 81 81 81 80 80 80 80 80 79 79 79 79 79 79 79 79 79 80 82 83 83 83 84 84 84 84 85 86 88 90 92 94 96 98 101 103 105 107 109 112 113 113 113 113 113 114 116 118 120 121 122 123 123 123 124 125 126 125 126 127 127 127 128 130 131 131 129 127 124 121 120
88 88 87 87 87 86 86 86 86 85 84 84 83 83 83 83 83 83 83 83 83 82 81 81 81 81 81 81 81 81 81 81 82 82 83 83 83 83 84 85 86 88 91 93 94 96 98 100 102 104 106 107 109 111 112 112 112 112 114 115 117 120 121 121 122 122 122 122 124 126 126 125 126 127 127 128 129 130 131 130 128 126 122 119 118
90 90 89 89 89 89 88 88 88 88 88 87 86 85 85 85 85 85 85 85 85 84 82 81 81 82 82 82 81 81 81 81 80 80 81 81 82 82 84 86 88 90 92 94 96 98 100 102 103 104 105 106 109 111 112 112 112 112 114 117 119 121 122 121 121 121 121 122 123 125 126 125 125 127 128 129 129 129 128 128 127 124 120 118 118
92 91 91 91 90 90 89 89 88 88 88 87 86 86 85 84 84 85 85 85 84 82 81 81 82 82 82 81 80 80 79 78 78 78 79 80 81 83 86 88 90 92 94 96 98 100 101 102 103 104 104 106 109 111 111 111 111 113 115 118 121 122 122 121 120 120 121 121 122 124 125 125 125 126 129 129 128 127 126 125 125 122 119 120 121
94 93 92 92 91 90 89 89 89 89 88 88 87 86 86 85 85 85 85 84 83 82 82 82 82 81 81 80 79 79 78 78 78 79 81 82 84 86 89 91 93 95 97 98 99 100 101 102 103 104 105 107 109 109 109 109 111 114 117 119 121 122 122 120 119 120 121 122 123 123 124 125 126 127 130 129 128 126 125 124 122 120 118 119 120
98 97 96 94 92 89 87 86 86 87 87 87 87 87 86 86 86 85 84 84 84 83 83 83 83 82 82 81 81 81 81 81 82 83 85 86 88 90 92 94 96 97 99 99 100 101 101 102 103 104 106 106 106 106 107 109 112 115 117 119 121 121 120 119 119 120 121 122 123 124 125 126 128 129 130 129 128 126 124 122 121 119 117 117 116
99 99 98 97 95 92 90 87 87 87 87 87 87 87 87 86 86 85 84 84 83 83 83 84 84 84 84 84 84 84 85 85 86 88 89 90 91 93 95 96 97 99 100 100 100 100 101 102 103 104 105 104 104 105 107 109 112 114 116 118 119 119 119 119 119 120 122 123 124 125 126 128 129 129 129 129 128 125 122 121 121 120 118 115 113
99 99 99 98 97 96 95 93 92 91 91 91 90 90 90 89 89 89 88 87 87 86 86 86 86 87 87 87 87 87 87 88 89 90 91 92 93 94 96 97 98 99 99 99 99 99 100 101 102 103 103 104 104 105 107 109 111 113 115 115 115 116 116 117 119 120 122 123 124 127 128 128 128 128 129 129 128 125 123 122 122 120 118 115 111
98 99 99 98 98 97 97 96 96 96 95 95 94 94 94 94 93 93 92 91 91 91 90 90 90 90 90 90 90 89 89 90 90 92 93 93 94 95 97 98 98 98 98 98 98 98 99 100 101 102 103 104 105 106 107 109 111 112 112 111 111 112 113 115 118 119 121 124 126 127 127 127 128 129 130 130 128 126 125 124 122 120 117 113 109
96 97 97 98 98 97 97 97 98 98 99 99 98 99 99 99 98 97 96 95 94 94 93 93 92 92 91 91 91 90 90 91 92 93 93 93 94 95 96 96 97 97 96 96 96 97 98 99 100 101 103 104 105 106 107 109 110 110 108 107 107 109 111 113 115 117 120 123 124 123 124 125 127 128 129 128 127 126 126 125 124 121 117 112 107
93 94 95 96 96 97 97 97 97 98 99 99 99 100 101 101 101 100 98 97 96 95 94 93 92 92 91 91 91 91 91 92 93 93 93 93 93 94 94 94 94 94 94 94 95 96 98 99 99 100 102 103 105 106 108 108 107 106 105 104 105 107 109 111 114 117 119 118 117 119 122 124 125 126 126 125 125 126 126 126 125 123 118 111 105
91 92 93 93 94 95 95 96 96 97 97 98 98 98 99 100 100 99 97 96 96 95 94 93 92 91 91 90 90 90 91 92 93 93 92 92 91 91 91 92 92 93 93 94 95 97 98 98 98 99 101 102 104 106 107 105 103 102 102 103 105 106 108 110 114 115 114 113 114 118 120 121 122 123 122 122 124 125 125 125 125 122 117 111 105
90 91 91 92 92 93 94 94 95 95 96 96 97 97 97 98 98 96 95 94 94 93 92 91 90 89 89 88 88 88 89 89 90 90 89 89 89 89 90 91 92 93 93 94 95 96 96 96 97 98 100 102 104 104 102 100 99 99 101 103 104 106 108 111 111 109 109 111 114 117 118 119 120 119 119 121 123 123 123 124 122 118 114 110 104
90 90 91 91 91 92 93 93 93 94 94 94 95 95 95 95 95 94 92 92 91 90 89 88 88 87 87 86 86 86 86 87 87 87 87 87 88 89 91 92 92 92 92 93 94 95 95 95 96 98 99 101 100 98 97 96 97 99 101 102 104 106 109 109 106 105 108 112 114 116 117 117 116 116 118 120 121 121 122 120 117 114 111 107 101
90 91 91 92 92 92 93 93 93 93 93 93 94 93 93 93 92 91 90 90 90 89 88 87 86 85 85 85 85 85 85 86 86 87 87 88 89 90 91 91 90 90 91 92 93 93 93 94 96 97 97 96 94 93 93 94 96 99 101 102 105 107 106 104 103 106 110 112 113 115 116 115 115 117 118 119 119 119 119 116 114 112 109 104 98
88 89 91 92 92 93 94 94 93 93 93 93 94 94 93 93 91 90 89 89 89 89 88 87 86 85 85 85 85 85 85 86 87 87 88 89 90 90 89 88 88 88 89 90 91 91 92 94 94 93 90 89 88 90 92 94 97 99 100 103 105 104 101 101 104 108 109 111 113 113 113 113 116 118 118 118 117 117 115 113 111 109 105 100 96
83 85 87 89 90 91 92 92 93 94 94 94 94 94 94 93 91 90 89 90 90 89 88 88 87 87 86 86 85 85 85 86 87 87 88 88 88 87 86 86 87 87 88 88 89 90 91 90 88 85 84 84 86 89 92 95 97 99 101 103 102 99 98 102 106 107 109 111 111 110 111 114 116 118 118 117 116 114 112 110 108 105 100 96 94
79 80 82 84 86 87 88 89 90 91 92 92 93 93 93 92 91 90 89 89 90 89 88 88 87 87 87 86 86 86 86 86 86 86 86 85 84 84 84 84 85 85 86 86 86 85 84 82 80 80 81 84 86 89 92 95 97 100 102 100 96 96 100 104 105 107 109 109 108 109 112 115 117 118 118 116 114 112 109 107 105 101 96 93 90
73 75 77 79 81 82 83 85 86 86 87 88 89 89 89 89 88 87 87 87 87 87 86 86 86 86 85 85 85 84 84 83 83 83 82 81 81 81 81 82 82 82 81 79 78 76 75 75 76 78 81 84 87 89 91 95 98 99 97 94 94 98 102 104 105 107 107 106 107 110 113 116 117 117 117 115 113 109 106 104 101 97 93 90 86
69 70 72 73 75 76 78 80 81 82 83 83 84 85 85 85 84 83 83 84 84 84 83 83 83 82 81 81 80 80 79 79 79 78 78 77 77 77 77 77 75 73 71 70 70 70 71 73 76 79 82 84 87 89 92 95 96 93 91 92 96 100 102 103 105 106 105 105 108 111 114 116 116 116 115 113 110 106 104 101 97 93 91 87 82
66 67 68 69 69 71 72 74 76 77 78 79 79 80 81 80 80 79 79 80 82 81 79 79 79 78 76 76 75 74 74 74 74 72 71 71 70 70 69 67 65 63 63 65 67 69 71 73 76 79 81 84 86 90 92 91 89 88 91 95 97 99 101 103 104 103 103 106 109 112 114 115 115 114 113 111 107 104 100 97 93 90 88 85 81
63 64 65 65 66 66 67 68 70 71 73 74 75 75 76 76 76 75 75 76 77 77 75 74 74 72 71 70 69 69 68 67 66 64 63 62 62 60 59 57 56 58 61 64 66 68 71 74 76 78 81 84 87 88 87 85 85 89 93 96 97 99 101 102 101 101 103 107 110 112 114 114 113 112 111 108 104 101 97 93 90 87 85 82 80
61 62 63 63 63 63 64 64 65 66 67 68 69 69 71 72 72 71 70 71 72 71 70 69 68 66 64 64 63 62 61 59 58 57 56 54 52 51 51 52 55 59 62 64 66 68 71 74 76 79 82 84 84 83 82 83 86 90 93 95 97 99 100 99 99 101 104 107 110 112 112 112 111 110 108 104 101 98 94 89 86 84 82 79 78
59 61 62 62 61 61 61 62 62 62 63 64 64 64 65 66 67 67 66 67 68 68 66 64 63 61 60 59 58 56 55 54 52 50 48 46 45 46 49 53 56 59 62 63 65 68 71 74 76 79 81 80 78 79 81 84 88 90 92 94 96 97 96 96 98 101 104 107 109 110 110 110 109 107 104 101 98 94 89 86 83 81 79 77 76
54 56 58 59 60 60 60 60 61 61 61 62 62 61 61 61 61 62 62 64 65 65 64 61 58 57 55 53 52 51 50 48 46 44 42 42 44 47 51 53 56 59 61 63 66 69 71 74 76 76 75 74 76 79 82 85 88 90 91 94 95 94 93 95 98 101 104 107 108 108 109 108 106 103 99 98 96 91 86 82 81 79 77 76 75
49 50 53 54 55 56 57 58 59 59 59 60 60 59 58 57 57 57 58 59 60 61 61 58 55 52 49 47 47 46 44 43 42 41 42 44 47 50 52 53 55 58 61 64 67 68 70 72 73 72 72 74 77 80 83 86 87 89 91 92 92 91 93 96 99 102 104 106 106 106 107 106 102 99 96 94 92 87 82 79 78 77 75 74 74
46 47 47 49 49 50 51 53 54 55 57 58 58 58 57 55 54 53 54 54 56 57 57 55 51 47 44 44 44 42 41 41 41 42 44 47 49 50 52 54 55 58 61 64 66 67 69 71 70 70 72 75 78 81 83 85 86 89 90 89 88 90 93 96 99 102 104 104 104 105 104 102 98 95 93 92 89 84 78 75 74 74 73 73 73
46 46 46 46 46 46 47 48 49 50 51 53 54 54 54 54 52 50 50 51 52 55 55 52 49 47 45 44 43 41 41 42 43 45 47 48 48 49 52 53 55 58 62 64 64 67 69 70 70 71 73 76 79 81 83 84 86 88 87 85 86 90 93 96 99 102 102 102 103 103 101 97 94 92 91 88 85 81 76 72 71 72 71 71 71
46 45 45 45 44 44 44 45 45 46 47 48 48 49 50 51 50 49 48 49 50 53 54 52 49 48 46 43 41 41 42 44 45 47 48 48 48 49 51 53 56 60 63 63 64 68 70 70 70 72 75 77 79 80 82 84 85 84 83 84 87 90 93 96 99 100 100 100 101 99 96 93 90 89 88 85 81 78 73 69 68 69 70 69 69
44 43 43 43 42 41 41 41 42 43 43 43 44 44 45 46 47 46 46 47 49 51 53 52 50 48 44 40 39 42 45 46 46 47 48 49 50 51 53 55 59 62 63 64 66 69 70 70 71 73 75 77 78 80 81 83 82 80 81 84 87 90 93 97 98 98 98 99 98 95 92 89 88 87 85 81 78 75 71 66 65 68 68 68 68
42 42 42 42 41 39 38 37 38 40 40 40 40 41 41 42 43 44 45 46 47 49 51 52 51 48 43 40 41 44 47 47 46 47 49 50 51 53 56 59 62 63 64 65 68 70 71 71 72 74 75 76 78 79 80 80 78 79 81 84 87 90 94 96 96 96 97 97 95 91 88 87 86 84 81 78 75 73 69 64 63 65 66 66 66
41 40 40 39 39 38 37 36 37 37 37 37 37 37 38 38 40 42 42 43 44 47 50 52 51 48 44 43 45 49 50 49 47 49 53 53 53 56 60 62 63 64 64 66 69 70 70 71 72 73 74 75 77 78 77 75 76 78 81 84 87 91 94 94 94 95 95 94 90 87 85 84 83 81 78 74 73 71 67 63 61 62 64 64 64
40 39 37 35 34 34 34 34 34 35 34 34 34 35 36 36 37 38 39 40 42 44 48 50 51 49 48 49 50 52 52 50 49 53 56 56 56 59 62 63 63 64 65 67 69 69 69 70 71 72 73 74 75 74 73 73 75 78 81 84 88 91 92 92 92 93 92 90 87 84 83 82 81 78 74 72 70 68 65 62 60 61 62 61 61
36 35 33 31 30 29 30 31 31 31 31 31 31 32 33 33 34 35 36 37 38 41 44 47 49 51 52 53 54 53 53 51 51 54 57 57 58 61 62 63 63 64 65 67 67 67 67 69 70 71 72 72 72 70 69 72 75 78 81 85 89 90 90 90 91 91 89 86 83 81 80 79 78 75 71 69 67 66 63 60 59 60 61 60 59
30 29 28 27 26 26 26 26 26 26 27 28 29 29 29 29 30 31 32 33 35 37 39 41 45 50 54 56 56 55 53 52 52 55 57 57 59 61 61 61 62 63 65 65 65 65 66 68 68 69 70 69 66 66 69 72 74 77 82 86 88 88 89 89 90 89 86 83 80 79 78 77 75 72 69 66 64 63 61 59 58 59 60 59 58
27 26 24 23 22 22 21 21 21 22 23 24 24 24 24 25 25 25 26 28 30 31 31 32 37 45 52 55 56 56 55 53 53 54 56 57 59 59 59 59 61 62 62 61 62 64 65 65 66 67 66 63 63 65 68 71 74 78 82 85 86 87 87 88 88 86 83 80 78 77 76 75 73 69 66 64 62 60 59 57 57 57 58 58 58
25 23 21 19 18 17 16 16 16 17 17 17 17 18 18 18 18 19 20 21 23 24 25 26 29 35 41 46 49 52 54 53 53 53 55 56 56 56 57 58 59 58 58 59 61 62 62 63 63 62 60 59 62 65 67 70 74 79 82 84 85 85 86 86 86 83 80 78 76 75 75 73 70 67 64 62 60 58 57 56 55 56 56 55 55
23 20 17 15 12 10 9 9 9 9 9 10 10 11 12 12 13 14 15 17 18 20 21 21 22 23 26 30 35 40 44 47 48 49 51 52 53 53 54 54 54 55 56 58 58 58 60 60 59 56 56 58 61 64 66 70 75 79 81 82 83 83 84 85 83 80 77 76 74 73 73 71 68 65 62 60 58 56 55 54 54 54 53 52 52
21 18 15 12 10 8 6 4 4 3 4 4 5 7 7 8 9 9 9 9 9 8 7 7 7 9 11 15 20 25 30 35 39 42 45 46 47 48 49 50 51 53 54 54 55 56 57 55 53 52 54 58 61 63 66 71 75 78 80 81 81 82 83 83 81 78 75 74 72 72 71 69 66 63 60 58 56 54 53 52 53 52 51 50 50
18 15 12 10 8 7 5 4 3 2 1 1 1 2 2 3 4 5 6 7 7 7 7 6 5 4 6 10 15 20 25 29 34 37 39 41 43 45 46 48 49 49 50 52 54 54 52 49 48 51 54 57 60 63 67 71 74 77 79 79 80 81 82 81 79 76 73 72 71 70 69 67 64 61 59 56 55 53 52 51 52 51 50 49 48
15 13 10 9 7 7 7 7 8 9 10 11 12 13 13 13 14 15 15 15 14 12 9 7 6 7 11 15 18 22 25 28 31 34 37 39 41 43 44 44 46 47 50 52 52 49 46 45 47 51 54 56 59 63 66 70 74 77 78 78 79 80 81 79 77 74 71 70 69 69 68 65 63 60 57 55 53 52 51 51 50 49 48 47 47
15 13 12 12 12 13 15 16 17 18 19 19 19 19 18 18 18 18 18 15 12 9 7 6 8 10 14 16 19 22 25 28 31 34 36 38 39 40 41 43 46 48 50 49 46 42 42 44 47 51 54 56 59 63 66 71 74 76 77 77 78 79 80 78 75 72 70 69 68 67 66 64 61 58 55 53 52 50 50 50 49 48 46 46 45
Wind_Direction
253 254 255 255 255 256 257 259 261 262 264 265 266 266 267 268 269 270 272 273 274 276 277 278 280 281 282 283 284 285 286 286 287 289 291 292 293 293 293 293 293 293 293 293 293 293 293 295 296 297 298 299 300 300 302 303 304 306 307 309 310 312 313 313 314 315 315 316 317 318 320 321 321 321 321 321 320 320 320 321 321 321 321 321 321
252 254 255 255 255 256 257 258 260 261 263 264 265 265 267 268 269 270 272 274 275 277 278 279 280 281 282 282 283 284 285 286 288 290 291 292 292 292 292 292 293 293 292 292 292 293 294 296 297 298 299 300 300 301 303 304 305 306 308 310 311 312 312 313 314 315 315 316 317 318 319 320 320 321 321 320 320 320 320 320 320 320 321 321 321
252 253 254 255 256 257 257 258 259 261 262 263 264 266 267 269 270 271 273 275 277 278 278 279 279 280 281 282 283 284 286 288 289 291 291 291 291 291 291 292 292 292 292 292 293 294 296 297 298 300 300 301 302 303 304 305 306 307 309 310 311 312 312 313 313 315 316 316 317 318 319 319 320 320 320 319 319 319 319 319 320 320 320 320 321
251 252 253 255 256 257 258 258 259 261 262 264 266 267 268 270 271 273 274 276 277 277 277 278 279 281 282 283 285 286 288 289 289 290 290 290 290 290 291 291 291 291 292 293 294 296 297 299 300 300 301 302 303 303 304 305 307 308 310 311 311 312 312 312 313 315 316 316 317 317 318 318 319 319 319 319 318 318 318 319 319 320 320 320 320
250 251 253 254 256 258 258 259 260 261 263 265 267 268 269 271 272 274 275 275 276 277 278 279 281 282 284 285 286 287 288 288 289 289 290 290 290 290 290 290 291 292 293 294 296 297 299 300 301 301 302 302 303 304 305 306 307 309 310 311 311 311 312 312 314 315 316 316 317 317 318 318 318 318 318 318 318 318 318 319 319 319 320 320 320
252 253 254 255 256 257 258 259 260 262 264 266 267 269 270 271 272 273 274 275 276 278 279 280 282 283 284 285 286 287 288 289 289 289 289 288 288 289 289 290 291 293 294 296 297 299 300 301 301 302 302 303 304 304 305 306 308 309 310 311 311 311 312 313 314 315 316 316 316 317 317 317 317 317 317 317 317 317 318 319 319 319 320 320 320
252 253 255 256 257 258 258 260 261 262 264 265 267 269 270 271 272 273 274 276 277 278 280 281 282 284 284 285 286 287 287 288 287 287 287 287 288 288 289 291 292 294 295 297 299 299 300 301 301 302 303 304 305 305 306 307 308 310 310 310 311 311 312 313 314 316 316 316 316 317 317 316 317 317 317 317 317 317 317 318 319 319 319 320 320
251 253 254 255 256 257 259 260 261 262 263 265 266 268 269 270 271 272 274 276 277 278 280 281 282 283 283 284 285 286 286 286 286 286 286 287 288 288 290 291 293 294 296 297 298 299 300 301 302 303 304 305 305 305 306 308 309 310 310 310 310 311 312 313 315 315 316 316 316 317 316 316 316 316 316 316 317 317 318 318 318 319 319 320 320
251 252 253 254 255 257 258 260 261 262 264 265 266 267 268 269 270 272 273 275 277 278 280 281 282 282 283 283 284 284 285 285 285 286 287 287 288 288 290 291 293 294 295 296 297 299 300 301 302 303 304 305 305 305 306 308 309 309 309 310 310 311 312 314 315 315 316 316 316 316 316 316 316 316 316 316 317 317 318 318 318 318 319 320 320
251 252 253 254 255 256 258 259 260 262 263 264 266 267 268 269 270 272 273 275 276 278 279 280 281 282 282 283 283 284 284 285 285 286 287 287 288 289 290 291 292 294 294 296 297 299 300 301 303 304 305 305 305 305 307 308 309 309 309 309 310 311 312 314 315 315 315 316 316 315 315 315 315 315 315 316 317 317 317 317 318 318 319 320 319
253 254 254 254 255 256 257 259 260 261 263 264 265 266 268 269 270 272 273 274 276 277 279 280 281 281 282 282 283 283 284 285 286 287 287 288 289 291 291 292 292 293 294 296 297 299 300 302 303 304 304 304 304 305 307 308 308 308 308 309 310 311 312 314 315 315 315 315 315 314 314 315 315 315 315 316 317 317 317 317 317 318 319 319 318
254 255 256 257 257 258 259 260 261 262 263 264 266 267 268 269 270 272 273 274 276 277 279 280 280 281 281 282 283 283 284 285 286 287 288 289 290 291 291 292 292 293 295 296 298 299 301 302 303 304 304 303 304 305 307 307 308 308 308 309 310 311 313 314 314 314 314 314 314 313 314 314 314 315 315 316 316 316 316 317 318 319 319 319 319
255 255 256 258 259 260 261 262 263 264 265 266 267 267 268 269 270 271 273 274 276 277 278 278 279 281 281 282 282 283 284 285 286 287 288 289 289 290 291 291 292 294 295 297 298 300 301 302 303 303 303 303 304 305 307 307 307 307 308 309 310 312 313 314 314 314 313 313 313 313 313 314 314 315 315 315 315 316 316 317 318 319 319 320 320
254 255 256 257 259 260 261 262 263 264 265 266 266 267 268 268 269 271 272 273 274 275 276 277 278 279 279 280 281 282 283 284 285 285 286 287 288 289 290 291 292 294 295 297 299 300 301 301 302 301 301 302 304 305 306 307 307 308 308 310 311 312 313 313 313 313 313 313 312 313 313 313 314 315 315 315 315 316 318 319 318 319 320 321 321
254 255 256 257 257 258 259 260 261 262 263 264 265 266 267 267 268 269 271 272 273 274 275 276 276 276 277 277 278 279 280 281 282 283 284 285 287 288 289 291 292 294 296 298 299 300 300 300 300 300 301 302 304 305 306 306 307 308 309 310 311 312 312 313 313 312 312 312 312 313 313 314 315 315 315 315 316 317 319 319 318 319 320 321 321
253 254 255 255 256 256 256 257 258 259 261 262 264 265 266 267 268 268 269 270 271 272 273 274 275 275 275 275 276 277 278 279 280 281 283 284 286 287 289 290 292 294 295 297 298 298 299 298 298 299 301 303 304 305 305 306 307 308 310 311 311 312 312 313 312 312 312 312 313 314 314 315 315 315 315 316 317 318 319 319 319 320 321 322 322
252 253 254 255 255 256 256 256 256 258 259 261 262 264 265 266 267 268 269 270 271 271 272 273 274 274 274 275 275 276 277 278 279 280 282 283 285 287 288 290 292 293 295 296 296 297 297 297 298 300 301 303 304 304 305 305 307 308 310 311 311 311 312 312 312 312 312 313 314 314 315 315 315 315 316 317 318 319 319 320 320 321 322 322 323
252 252 253 254 255 255 255 256 256 257 259 260 262 263 264 265 266 268 269 270 271 272 272 273 273 274 274 274 275 276 277 278 279 280 281 283 285 287 288 290 291 293 294 295 295 296 296 296 298 300 302 302 303 304 304 306 307 308 309 310 310 311 311 311 311 312 313 314 315 315 315 316 316 316 317 319 320 320 320 321 322 322 322 323 323
253 253 253 254 254 255 255 256 256 257 258 259 261 263 264 265 266 267 268 269 271 272 272 273 273 273 273 273 274 275 276 277 278 280 281 283 285 286 288 290 291 292 293 294 295 295 295 297 299 300 301 302 303 303 305 306 307 308 309 309 310 310 310 310 311 312 313 314 315 315 315 316 317 317 319 320 320 320 321 322 323 323 323 324 324
254 255 255 255 255 255 256 256 257 258 258 259 260 262 263 264 265 266 268 269 270 271 271 272 272 273 273 273 273 274 276 277 278 280 282 283 285 286 288 289 290 291 292 293 294 294 295 297 299 300 300 301 302 304 305 306 307 308 308 309 309 309 309 310 311 313 314 314 314 315 316 316 317 318 319 320 320 320 322 323 323 324 324 325 325
256 256 257 257 257 257 257 257 258 259 259 260 261 262 263 264 265 266 267 268 269 270 270 271 272 272 272 273 274 274 276 277 278 280 281 283 285 286 287 288 289 290 292 293 293 294 295 297 298 299 300 301 302 304 305 306 307 307 307 308 307 308 309 311 312 313 313 314 315 315 316 317 318 319 319 319 320 322 323 324 324 324 325 326 326
259 259 259 259 259 259 259 258 258 259 260 260 261 262 263 264 265 266 267 268 268 269 270 270 271 271 272 272 273 274 275 276 277 279 281 282 284 285 286 287 289 290 291 292 292 294 295 297 297 298 300 301 303 304 305 306 306 306 306 306 307 308 310 311 312 313 314 314 315 316 316 317 318 319 319 320 321 323 324 324 324 325 326 326 326
261 261 261 261 261 261 261 260 260 260 260 261 261 262 262 263 264 266 267 267 268 269 269 270 270 270 271 271 272 273 274 275 276 278 280 282 283 285 286 287 289 290 291 291 292 293 295 296 297 299 300 302 303 304 304 305 305 305 305 306 308 309 311 312 313 314 314 315 316 316 317 318 319 319 320 321 323 324 325 325 325 326 327 327 326
263 263 263 263 263 263 263 263 262 262 262 262 263 263 263 263 264 265 266 267 268 268 269 269 270 270 270 271 271 272 273 274 275 277 279 281 283 284 286 287 289 289 290 290 292 294 295 296 298 299 300 301 302 303 303 304 304 304 306 307 309 310 311 313 314 315 316 316 317 317 318 319 319 320 321 323 324 325 325 326 327 327 327 327 327
263 264 264 264 264 264 264 265 265 265 265 265 265 265 265 265 265 265 266 267 268 268 269 270 270 270 271 271 272 272 273 275 277 278 280 282 283 285 286 287 288 288 289 291 293 294 296 297 298 299 300 301 302 302 302 302 303 305 307 308 310 311 313 314 315 316 317 317 318 318 319 320 320 321 323 324 325 326 327 328 328 328 327 328 328
264 264 264 265 265 265 265 266 266 267 267 267 268 268 268 268 268 268 268 268 269 269 270 271 271 272 273 273 274 275 276 277 279 280 281 282 283 285 286 287 287 288 290 292 294 295 295 296 297 299 300 300 301 301 301 302 304 306 308 309 311 312 314 315 316 317 317 318 319 319 320 321 321 323 324 325 326 327 328 329 328 328 328 329 329
266 266 265 265 266 266 266 266 266 267 267 268 269 269 270 270 270 271 271 271 271 272 272 273 273 274 274 275 276 277 278 279 280 280 281 282 283 285 285 286 288 289 291 293 293 294 294 295 297 299 299 299 299 300 302 304 306 308 309 310 312 314 316 317 317 318 318 319 319 320 321 322 323 324 325 326 327 328 329 329 329 328 329 330 330
266 266 266 266 266 267 267 267 267 267 267 267 268 269 269 270 271 271 272 272 272 272 273 273 274 274 275 276 277 278 278 279 279 280 281 282 283 285 285 287 288 290 291 292 292 292 294 296 297 297 298 298 300 302 304 306 307 309 310 313 315 316 317 318 318 318 319 320 321 322 322 323 324 325 326 327 328 329 330 329 329 329 330 330 331
266 266 266 266 266 266 267 267 267 267 268 268 268 268 269 269 270 271 271 272 272 272 272 273 274 274 275 276 277 277 278 278 279 280 281 283 284 285 286 287 288 289 290 290 291 292 294 295 296 297 298 300 302 304 305 307 308 310 312 315 316 317 318 318 318 319 320 322 323 323 323 324 325 326 327 327 328 330 330 330 330 330 330 331 333
268 268 267 267 267 267 266 267 267 267 268 268 268 268 268 269 269 269 270 271 272 272 273 274 274 276 276 277 277 277 277 278 279 280 282 283 284 284 286 287 288 289 289 289 290 292 294 295 297 299 300 302 304 305 307 308 310 313 315 317 318 318 318 318 319 321 322 323 323 323 324 325 326 327 327 328 329 330 331 330 330 330 331 332 334
270 269 269 268 268 268 268 267 267 267 267 267 267 267 267 268 268 268 268 269 271 272 273 274 275 276 277 278 279 279 280 280 281 282 283 284 284 286 287 288 288 287 287 288 291 294 295 296 298 300 302 304 305 307 309 311 313 315 317 318 318 318 319 319 321 322 323 323 324 324 325 326 326 327 327 328 329 330 331 331 330 331 331 333 335
271 271 270 269 269 268 268 268 268 268 268 267 267 267 266 266 266 266 267 267 268 270 271 273 274 275 276 278 279 281 282 283 284 284 284 285 287 288 288 286 285 285 287 290 293 295 296 298 300 302 304 306 307 309 311 313 315 317 318 318 318 319 319 321 322 323 323 324 324 324 325 326 327 328 328 328 330 331 332 331 331 331 332 334 335
271 270 270 270 269 269 268 267 267 267 267 267 267 266 266 265 265 265 265 265 265 267 268 270 273 274 275 277 278 280 282 284 285 285 286 287 287 285 283 282 284 286 289 292 294 295 297 299 302 304 306 308 310 311 313 315 317 318 318 318 318 319 320 322 323 323 324 324 324 325 326 327 327 328 328 329 330 331 332 332 331 331 333 334 336
274 272 271 270 270 269 269 268 268 267 266 266 266 265 265 265 265 264 263 261 262 264 265 266 269 271 273 275 276 278 280 283 285 286 285 283 281 279 279 281 284 287 290 293 295 296 299 303 306 308 309 311 312 313 315 317 318 318 318 318 319 320 322 323 324 324 324 324 325 326 327 327 328 328 329 329 330 332 333 332 331 332 334 335 336
281 278 275 273 272 271 270 269 268 268 267 267 266 265 265 264 264 263 261 259 258 260 262 263 265 267 269 271 272 275 279 281 282 280 278 275 275 277 280 283 286 289 291 294 296 300 304 308 310 312 312 312 313 315 317 318 318 318 319 319 320 322 323 324 324 324 325 325 326 327 327 328 328 328 329 330 330 332 333 333 331 332 334 335 336
287 284 281 278 276 274 272 270 269 268 267 267 267 266 265 264 262 261 260 257 255 255 257 260 261 263 264 265 267 271 276 276 275 274 274 274 276 279 283 286 288 290 293 296 300 305 310 313 313 313 312 313 315 317 318 318 319 319 319 320 322 323 324 324 324 325 325 325 327 327 328 328 328 329 330 331 331 332 334 334 332 333 335 336 336
290 288 286 283 280 278 276 274 272 271 269 267 266 265 265 264 262 260 258 256 252 250 251 254 256 257 259 262 265 268 271 271 272 274 276 279 281 283 285 287 289 292 295 299 304 311 314 315 313 312 313 315 317 318 318 319 319 319 320 322 323 324 324 325 325 325 325 326 327 328 328 328 329 330 331 331 331 333 335 335 333 333 335 336 336
291 289 287 285 282 280 278 277 275 274 272 270 268 265 264 263 261 258 256 254 250 247 247 249 252 254 257 260 263 265 267 269 272 276 278 281 283 285 287 289 292 295 298 302 308 314 316 314 312 312 314 316 317 318 318 319 319 320 321 323 324 324 325 325 325 325 326 327 328 328 329 329 330 331 331 331 332 333 335 336 334 334 335 336 336
293 290 287 285 283 281 279 278 276 274 274 273 271 268 264 261 259 257 254 252 249 246 244 245 248 252 254 256 259 262 266 269 272 275 277 279 281 285 288 291 295 298 301 304 310 315 315 312 312 314 316 317 318 318 319 319 320 321 323 324 325 325 325 326 326 326 327 328 329 329 330 330 331 331 332 332 332 333 336 337 336 335 335 335 335
295 292 289 287 285 283 281 278 276 274 274 274 273 269 265 261 257 255 252 250 249 246 242 242 244 248 250 253 256 259 263 265 269 273 276 278 282 286 290 293 296 299 302 307 312 314 312 311 313 315 316 317 318 319 319 320 321 323 324 325 325 326 326 326 327 328 329 329 329 330 331 331 332 332 333 333 333 334 336 339 338 336 335 335 335
297 294 291 289 287 285 282 280 278 276 276 275 273 270 266 261 256 253 250 249 248 245 242 241 242 243 245 248 252 255 259 263 268 272 275 278 284 288 291 293 296 300 304 309 311 311 310 311 314 315 316 318 318 319 319 321 323 324 325 326 326 327 327 327 328 329 329 330 330 331 332 332 332 333 334 334 333 334 337 340 339 337 336 335 335
300 298 295 292 288 285 282 279 278 277 276 275 272 269 265 260 255 252 250 248 246 245 243 242 240 240 241 245 249 253 258 263 268 272 275 280 285 288 289 291 295 300 306 309 309 308 309 312 314 316 317 318 318 319 320 322 324 325 326 327 327 327 327 328 329 330 331 331 332 332 333 333 333 334 335 335 334 335 338 341 340 338 336 336 336
303 300 298 295 290 285 280 277 276 276 275 272 269 266 263 259 256 253 250 248 247 246 245 243 240 238 239 243 247 252 256 261 267 273 278 283 286 287 289 292 297 302 306 307 306 307 311 313 314 316 317 318 319 320 322 324 325 327 328 328 328 328 328 329 330 331 332 332 333 334 334 334 335 336 336 336 335 336 339 342 341 338 337 336 337
310 306 302 297 291 285 279 275 273 271 268 267 265 264 262 259 256 254 252 250 248 248 248 247 244 241 240 243 247 252 256 261 267 274 279 283 285 287 291 295 299 303 304 304 306 309 312 313 315 317 317 318 320 322 324 326 327 328 329 329 329 329 330 331 332 333 333 334 334 335 335 335 336 337 337 337 336 337 340 342 341 339 337 337 338
321 316 309 301 293 284 276 270 266 264 264 264 264 263 262 261 260 259 257 254 252 253 254 254 249 245 244 246 250 253 257 262 267 273 277 280 284 289 294 298 300 301 302 305 308 311 313 314 316 317 318 319 322 324 326 328 329 329 330 330 330 330 331 332 333 334 335 335 335 336 336 337 338 338 338 338 338 339 342 343 342 340 338 338 340
332 326 319 310 301 291 282 274 269 267 267 267 266 266 267 268 267 264 260 257 255 254 254 253 250 248 248 248 251 254 256 259 264 269 275 280 287 292 295 297 299 301 304 308 310 312 313 315 317 318 319 321 324 326 328 330 330 331 331 331 331 332 333 334 335 336 336 336 337 337 337 338 339 339 339 339 340 341 343 343 343 341 340 340 342
342 339 335 329 320 312 301 291 283 279 276 273 273 273 271 269 265 261 258 255 252 251 252 253 254 254 253 250 250 253 255 259 264 271 278 284 290 293 295 297 301 305 308 310 311 313 315 317 318 318 321 323 326 329 331 331 332 332 333 333 333 333 334 336 337 337 337 338 338 338 339 340 340 340 341 341 342 343 343 344 344 342 341 342 344
349 349 350 349 347 345 341 334 323 306 288 277 270 266 260 257 254 252 249 246 243 243 249 257 265 270 269 264 262 264 266 270 275 280 285 288 291 294 297 301 306 309 310 311 313 315 317 317 318 320 323 326 329 331 332 333 333 334 334 334 334 335 337 338 339 339 339 339 339 339 340 341 341 342 342 343 343 344 345 345 345 343 343 343 345
355 355 360 5 8 12 16 20 26 34 55 98 136 155 151 144 141 132 116 101 90 80 69 54 32 348 308 291 285 283 282 283 285 287 290 293 296 300 304 308 310 311 312 314 316 317 317 318 320 323 326 329 332 333 334 334 335 336 336 336 336 337 339 340 340 340 340 341 341 341 342 343 343 343 344 345 345 346 347 347 346 344 344 345 347
1 3 11 21 32 48 61 71 79 85 89 92 95 97 99 101 100 94 87 78 69 61 49 28 351 316 300 293 290 289 289 290 291 294 298 301 304 307 310 312 313 314 316 316 317 317 318 320 323 326 329 333 334 335 335 336 337 337 337 337 338 339 341 342 342 342 342 342 342 343 344 344 344 345 346 346 347 347 348 348 347 346 346 348 349
21 28 41 54 66 76 82 86 89 90 91 90 90 89 86 83 78 72 67 61 53 40 17 341 315 302 298 296 295 296 296 298 301 303 306 308 310 312 315 317 317 318 318 317 317 318 319 322 326 330 333 335 336 336 337 338 339 339 339 339 340 341 343 343 343 343 343 344 344 344 345 345 346 346 347 348 348 349 350 350 349 348 349 350 352